Olympia, WA

10:17 AM PST on November 21, 2017 (GMT -0800)
Olympia

Weather History for KOLM - May, 2014

Change the Weather History Date:

Wednesday, May 7, 2014

  Actual Average Record
Temperature  
Mean Temperature 52 °F 52 °F  
Max Temperature 68 °F 64 °F 84 °F (1987)
Min Temperature 35 °F 41 °F 26 °F (2002)
Degree Days  
Heating Degree Days 13 13  
Month to date heating degree days 71 94  
Since 1 July heating degree days 4886 4953  
Cooling Degree Days 0 0  
Month to date cooling degree days 0 0  
Year to date cooling degree days 0 0  
Growing Degree Days 2 (Base 50)    
Moisture  
Dew Point 41 °F    
Average Humidity 71    
Maximum Humidity 100    
Minimum Humidity 42    
Precipitation  
Precipitation 0.00 in 0.08 in 0.69 in (1983)
Month to date precipitation 1.62 0.59  
Year to date precipitation 28.09 22.53  
Sea Level Pressure  
Sea Level Pressure 29.99 in    
Wind  
Wind Speed 3 mph (SSW)    
Max Wind Speed 10 mph    
Max Gust Speed 15 mph    
Visibility 8 miles    
Events      
T = Trace of Precipitation, MM = Missing Value Source: NWS Daily Summary

Daily Weather History Graph

Daily Weather History Graph

Search for Another Location

Airport or City:

Trip Planner

Search our weather history database for the weather conditions in past years. The results will help you decide how hot, cold, wet, or windy it might be!

Date:

Astronomy

May. 07, 2014 Rise Set
Actual Time 5:46 AM PDT 8:30 PM PDT
Civil Twilight 5:12 AM PDT 9:05 PM PDT
Nautical Twilight 4:28 AM PDT 9:49 PM PDT
Astronomical Twilight 3:36 AM PDT 10:41 PM PDT
Moon 1:14 PM PDT (5/7) 2:16 AM PDT (5/7)
Length of Visible Light 15h 53m
Length of Day
14h 43m
First Quarter, 56% of the Moon is Illuminated
May 7
First Quarter
May 14
Full
May 21
Last Quarter
May 28
New
Jun 5
First Quarter

Hourly Weather History & Observations

Time (PDT) Temp. Windchill Dew Point Humidity Pressure Visibility Wind Dir Wind Speed Gust Speed Precip Events Conditions
12:54 AM 41.0 °F - 37.9 °F 89% 30.06 in 7.0 mi Calm Calm - N/A   Clear
1:54 AM 39.9 °F - 37.0 °F 89% 30.05 in 7.0 mi Calm Calm - N/A   Clear
2:54 AM 37.0 °F - 35.1 °F 93% 30.06 in 7.0 mi Calm Calm - N/A   Clear
3:54 AM 36.0 °F - 35.1 °F 97% 30.07 in 7.0 mi Calm Calm - N/A   Clear
4:54 AM 37.9 °F - 36.0 °F 93% 30.06 in 6.0 mi Calm Calm - N/A   Mostly Cloudy
5:54 AM 36.0 °F - 35.1 °F 97% 30.05 in 2.5 mi Calm Calm - N/A   Clear
6:14 AM 36.0 °F - 34.0 °F 93% 30.05 in 3.0 mi Calm Calm - N/A   Clear
6:54 AM 37.9 °F - 37.0 °F 97% 30.05 in 4.0 mi Calm Calm - N/A   Clear
7:54 AM 45.0 °F 43.5 °F 41.0 °F 86% 30.06 in 10.0 mi SW 3.5 mph - N/A   Clear
8:54 AM 48.9 °F - 42.1 °F 77% 30.06 in 10.0 mi WSW 4.6 mph - N/A   Clear
9:54 AM 51.8 °F - 42.8 °F 71% 30.05 in 10.0 mi South 4.6 mph - N/A   Partly Cloudy
10:54 AM 55.0 °F - 42.1 °F 62% 30.04 in 10.0 mi SSE 3.5 mph - N/A   Clear
11:54 AM 57.0 °F - 41.0 °F 55% 30.02 in 9.0 mi Calm Calm - N/A   Clear
12:54 PM 60.1 °F - 42.1 °F 51% 30.00 in 10.0 mi SSW 4.6 mph - N/A   Clear
1:54 PM 62.1 °F - 41.0 °F 46% 29.98 in 10.0 mi ENE 3.5 mph - N/A   Clear
2:54 PM 62.1 °F - 41.0 °F 46% 29.97 in 10.0 mi ESE 4.6 mph - N/A   Partly Cloudy
3:54 PM 66.0 °F - 42.1 °F 42% 29.94 in 10.0 mi Variable 4.6 mph - N/A   Partly Cloudy
4:54 PM 64.9 °F - 42.1 °F 43% 29.92 in 10.0 mi SSW 5.8 mph - N/A   Scattered Clouds
5:54 PM 64.9 °F - 44.1 °F 47% 29.91 in 10.0 mi West 4.6 mph - N/A   Partly Cloudy
6:54 PM 63.0 °F - 45.0 °F 52% 29.90 in 9.0 mi WNW 4.6 mph - N/A   Clear
7:54 PM 59.0 °F - 45.0 °F 60% 29.90 in 9.0 mi NW 3.5 mph - N/A   Partly Cloudy
8:54 PM 55.0 °F - 44.1 °F 67% 29.90 in 9.0 mi SW 3.5 mph - N/A   Clear
9:54 PM 52.0 °F - 43.0 °F 71% 29.90 in 9.0 mi SSW 4.6 mph - N/A   Clear
10:54 PM 51.1 °F - 43.0 °F 74% 29.90 in 9.0 mi South 3.5 mph - N/A   Mostly Cloudy
11:54 PM 50.0 °F - 44.1 °F 80% 29.91 in 9.0 mi South 3.5 mph - N/A   Scattered Clouds